sat.trackr.live / text

‹ back to catalog

STARLINK-34180

NORAD 64081 · 2025-107T

PAYLOAD ACTIVE UNKNOWN

§ Identity

Operator
Country
US
Launch date
2025-05-21
Launch site
AFETR
Launch vehicle
Mass (kg)
RCS (m²)

Purposes: comms

External: N2YO · Heavens-Above · Gunter

§ Orbital elements

Epoch: 2026-05-25T05:16:42.053088Z

Period
94.27 min
Inclination
42.9998°
Eccentricity
0.0001306
Mean motion
15.27603726 rev/d
Perigee alt
482.1 km
Apogee alt
483.9 km
Semi-major
6,861.1 km
B*
8.0497e-4
RAAN
129.4409°
Arg perigee
264.6749°
Mean anomaly
95.3954°
Rev number
5,782

§ Raw data

STARLINK-341801 64081U 25107T   26145.21993117  .00021971  00000+0  80497-3 0  99952 64081  42.9998 129.4409 0001306 264.6749  95.3954 15.27603726 57825

JSON: /api/v1/satellites/64081 · /tle

For live sub-satellite position, see the globe view (requires WebGL).

§ Visibility from observer

Set your observer location to see the next 7 days of passes ≥ 10°. The values pass through the URL so the page stays shareable.

No JS? Fill the form by hand. The geolocation button needs JavaScript.